Location: Area 52 Observatory
(34.2620°N, 119.2590°W)
Time: 18:01:00
(UTC-07:00)

Hubble Space Telescope - Pass Details

Date: 26 March 2019
Orbit: 536 x 540 km, 28.5° (Epoch: 14 October)

Event Time Altitude Azimuth Distance (km) Brightness Sun altitude
Rises 20:47:29 0° 249° (WSW) 2,674 5.2 -19.9°
Reaches altitude 10° 20:49:52 10° 241° (WSW) 1,784 4.0 -20.4°
Enters shadow 20:53:25 34° 183° (S) 886 1.7 -21.1°
